カタログに戻る

STARLINK-35717

運用中通信VLEO
NORAD 66839·PAYLOAD·🇺🇸 United States

打ち上げ Dec 2, 2025 から Vandenberg Space Force Base

Loading…

次のパス (今後24時間)

TLE

最新Source: CelesTrak SupGP

元期: Sep 14, 2026, 21:40 UTC

1 66839C 25280U   26257.90326389  .00002609  00000+0  21859-3 0  2572
2 66839  70.0008 217.3665 0003410 263.4880 272.6342 14.98335525    10

AllMySatでSTARLINK-35717をリアルタイム追跡

Download on the App Store